This is the latest recevied weather packets stored in our database for station/object OE3MHU-13. If no packets are shown the sender has not sent any weather packets the latest 10 day(s).
| Time | Temp. | Humidity | Pressure | Rain* | Wind** | Luminosity | Snow |
|---|---|---|---|---|---|---|---|
| 1777779045 | 8.33° C | 81% | 1020.3 hPa | 0 mm | - | - | - |
| 1777778743 | 8.33° C | 80% | 1020.3 hPa | 0 mm | - | - | - |
| 1777778439 | 8.33° C | 80% | 1020.3 hPa | 0 mm | - | - | - |
| 1777778138 | 8.33° C | 79% | 1020.2 hPa | 0 mm | - | - | - |
| 1777777838 | 8.33° C | 79% | 1020.2 hPa | 0 mm | - | - | - |
| 1777777537 | 8.33° C | 79% | 1020.2 hPa | 0 mm | - | - | - |
| 1777777235 | 8.89° C | 79% | 1020.2 hPa | 0 mm | - | - | - |
| 1777776933 | 8.89° C | 79% | 1020.2 hPa | 0 mm | - | - | - |
| 1777776631 | 8.89° C | 78% | 1020.1 hPa | 0 mm | - | - | - |
| 1777776329 | 8.89° C | 77% | 1020.2 hPa | 0 mm | - | - | - |
| 1777776026 | 8.89° C | 78% | 1020.2 hPa | 0 mm | - | - | - |
| 1777775725 | 8.89° C | 77% | 1020.2 hPa | 0 mm | - | - | - |
| 1777775423 | 8.89° C | 77% | 1020.1 hPa | 0 mm | - | - | - |
| 1777775120 | 9.44° C | 77% | 1020.1 hPa | 0 mm | - | - | - |
| 1777774821 | 9.44° C | 77% | 1020.3 hPa | 0 mm | - | - | - |
| 1777774521 | 9.44° C | 76% | 1020.2 hPa | 0 mm | - | - | - |
| 1777774219 | 9.44° C | 75% | 1020.1 hPa | 0 mm | - | - | - |
| 1777773919 | 9.44° C | 76% | 1020.1 hPa | 0 mm | - | - | - |
| 1777773612 | 8.89° C | 79% | 1019.9 hPa | 0 mm | - | - | - |
| 1777772386 | 8.89° C | 76% | 1019.7 hPa | 0 mm | - | - | - |
| 1777769979 | 9.44° C | 75% | 1019.9 hPa | 0 mm | - | - | - |
| 1777768777 | 9.44° C | 75% | 1019.9 hPa | 0 mm | - | - | - |
| 1777767276 | 9.44° C | 73% | 1020.1 hPa | 0 mm | - | - | - |
| 1777766664 | 9.44° C | 73% | 1020.2 hPa | 0 mm | - | - | - |
| 1777764519 | 10° C | 71% | 1020.5 hPa | 0 mm | - | - | - |
* Rain latest hour (hover to see other rain measurements)
** Current wind speed in m/s (hover to see current wind gust speed)